RH
61 65 62 56 48 48 50 53 41 60 77 95 99 100 100 100 100 100 100 100 99 100 100 100 100 99 99 90 98 57 56 46 46 42 39 30 26 27 33 48 40 53 47 43 51 51 38
84 94 84 79 68 59 60 53 59 54 40 41 71 84 100 100 100 100 100 100 100 100 100 78 58 75 64 74 82 77 63 59 56 48 38 31 29 27 33 50 37 54 53 51 60 53 33
98 100 100 100 99 99 81 72 82 68 90 85 49 45 76 96 100 100 100 96 100 100 90 90 84 57 43 62 67 75 75 57 52 48 38 34 28 33 37 51 37 52 60 60 76 50 42
100 100 100 100 100 100 100 100 92 82 78 100 97 75 53 62 64 75 90 89 88 84 92 79 53 55 48 67 67 60 65 60 53 44 42 36 32 37 38 57 37 62 58 72 72 51 45
100 100 100 100 100 100 100 100 100 100 97 82 94 99 96 95 68 68 99 74 70 73 59 51 45 38 44 39 36 33 27 28 31 40 40 34 31 42 46 66 35 73 58 64 63 80 56
100 94 100 100 100 100 100 100 100 100 100 100 98 82 79 85 80 95 97 80 65 59 55 39 30 31 26 32 35 33 27 29 30 28 36 37 50 42 66 77 39 70 44 78 91 86 62
100 100 100 94 95 100 100 100 100 100 100 100 100 99 81 73 76 90 93 70 54 40 46 38 32 27 23 26 28 30 32 26 32 31 33 79 67 44 100 82 37 53 64 98 93 95 75
100 100 100 97 93 93 90 100 100 88 92 100 70 76 85 99 80 77 66 61 55 40 34 34 30 21 18 20 23 26 30 25 64 85 100 79 54 96 100 84 44 38 80 98 75 100 88
70 81 81 81 81 87 78 72 81 94 86 100 92 71 85 83 59 54 52 44 40 35 22 27 26 17 20 19 17 24 34 51 100 100 100 85 60 100 100 95 53 40 89 90 54 95 100
100 100 93 84 89 92 100 100 100 100 100 76 100 100 69 80 48 39 39 35 30 25 20 19 22 15 15 16 20 26 42 84 100 100 89 74 56 99 100 100 66 36 62 100 48 67 100
62 80 98 100 100 100 99 100 99 99 100 88 100 100 81 60 55 36 37 22 20 21 17 24 26 17 24 25 26 57 99 100 100 100 100 88 95 100 100 100 80 52 34 68 44 63 90
34 41 44 63 82 98 89 86 95 93 83 74 70 72 66 58 38 29 26 25 24 25 23 29 38 31 30 42 62 94 100 100 100 100 100 99 93 99 100 100 99 51 40 40 46 61 70
31 34 34 37 53 73 74 73 81 70 66 70 58 45 43 38 29 28 29 29 28 27 30 36 55 58 69 71 93 98 100 100 100 100 100 100 85 99 100 100 100 96 56 51 50 56 95
25 30 33 33 34 34 40 56 64 58 46 42 38 32 33 34 32 35 35 31 28 37 39 43 59 99 88 100 100 100 100 100 100 100 100 100 91 91 100 100 100 100 100 74 63 65 79
16 20 28 30 33 37 38 36 38 38 36 37 35 34 39 39 36 38 34 32 40 42 51 51 69 100 100 100 100 95 100 100 100 100 100 100 100 91 77 100 100 100 100 98 69 63 59
11 12 16 20 27 35 38 40 39 39 37 37 38 34 39 36 35 33 27 32 43 47 52 60 71 96 100 100 100 85 96 100 100 100 100 100 100 100 97 100 100 100 96 100 93 67 68
13 12 12 13 16 21 25 29 31 31 29 27 31 32 37 32 27 23 21 28 32 41 51 63 81 100 100 100 100 98 88 100 100 100 100 100 100 100 71 98 100 95 95 76 97 100 100
10 13 16 16 14 14 16 18 21 22 18 19 17 20 24 19 16 14 16 20 23 27 31 54 74 81 91 100 99 94 100 100 100 100 100 100 100 100 100 100 100 100 100 96 69 70 84
7 8 12 15 17 18 18 17 17 16 13 13 14 16 20 18 16 18 19 20 21 23 19 43 55 73 80 87 100 80 99 96 100 100 100 100 100 100 100 90 81 97 96 93 94 80 88
6 8 9 10 13 17 20 21 21 18 15 15 16 21 24 20 17 17 19 22 25 34 16 21 49 59 68 74 97 95 85 100 99 100 100 100 100 100 100 100 100 100 76 86 97 100 99
5 6 8 10 11 13 15 16 16 14 11 10 13 17 16 12 13 11 12 16 22 32 20 16 39 49 56 70 73 100 94 91 100 100 87 94 100 100 100 100 100 100 99 84 72 73 74
5 5 6 7 8 10 11 11 11 9 6 10 13 14 11 9 8 8 8 10 16 22 23 19 21 40 43 52 62 83 99 100 100 100 100 100 100 99 100 100 100 100 100 100 100 100 99
5 5 6 6 7 8 8 9 9 8 8 11 10 7 5 6 5 5 6 8 10 15 19 20 15 24 37 45 52 79 90 96 85 100 98 100 98 100 98 92 97 98 100 100 99 100 100
5 5 6 7 7 7 7 7 7 7 7 7 7 6 6 6 5 6 5 5 8 10 15 16 18 16 25 32 41 65 73 84 93 96 96 82 88 93 84 89 83 100 96 84 100 97 93
5 6 6 6 7 7 7 7 6 6 7 8 7 7 6 5 5 5 5 5 6 8 11 16 19 17 15 23 35 40 58 70 85 92 90 90 85 81 82 86 100 100 91 99 100 99 100
6 6 6 6 6 7 7 8 8 8 9 8 7 7 6 5 5 4 4 5 5 7 8 14 18 19 15 15 27 36 41 50 69 92 86 90 94 94 92 99 100 96 93 84 85 75 87
7 7 7 7 7 8 10 11 11 10 10 9 7 7 8 7 5 5 5 5 5 6 9 11 15 19 19 15 18 31 38 44 53 64 67 67 69 77 82 93 91 87 90 92 96 94 86
7 7 8 9 10 11 11 12 11 11 11 11 9 8 8 7 5 5 5 5 6 8 9 11 13 16 18 18 17 21 27 36 46 54 67 70 73 72 71 69 71 72 76 86 91 96 91
9 9 9 8 8 9 9 10 13 13 12 12 10 9 9 8 7 7 6 6 7 7 9 10 12 14 17 21 22 22 24 25 26 33 38 42 47 45 45 49 52 56 60 70 75 76 74
Wind_Speed
78 78 80 77 74 73 76 77 79 80 85 84 86 86 84 85 86 86 86 84 85 83 84 85 84 85 84 83 84 86 85 84 73 64 70 69 66 60 51 37 34 32 25 26 20 21 20
80 84 84 85 84 81 78 81 84 84 85 88 90 90 91 88 90 88 90 93 90 91 92 93 93 92 93 88 90 91 84 79 79 77 75 70 72 63 48 39 34 35 30 27 24 23 20
80 88 89 92 93 93 87 85 86 87 89 92 94 96 94 94 96 94 96 94 97 98 96 96 96 98 98 97 95 88 85 84 80 84 76 76 68 62 44 41 37 38 33 31 27 25 23
83 89 91 97 98 98 98 102 97 93 96 96 96 99 101 100 102 103 100 100 100 101 102 101 100 98 96 100 95 93 91 87 91 87 85 80 77 66 45 42 38 38 38 34 30 28 23
87 85 91 95 101 102 101 98 100 103 101 101 101 100 100 95 104 107 97 104 104 103 106 108 108 108 102 101 100 97 91 90 82 87 83 81 72 57 46 45 40 42 45 38 32 30 25
99 92 94 99 98 103 106 107 102 105 105 106 101 102 107 100 105 101 96 101 107 107 108 114 115 115 113 109 104 100 97 86 90 87 82 79 63 50 48 48 46 47 36 37 38 30 27
99 100 96 97 103 103 103 106 100 106 100 101 104 107 98 105 108 96 96 109 106 103 105 108 111 115 113 100 98 98 94 80 77 78 73 64 49 43 54 52 44 41 41 43 38 31 29
96 96 102 99 101 99 99 100 103 95 99 90 91 91 89 87 97 96 102 109 111 108 107 111 103 86 77 73 77 79 81 78 70 64 61 54 38 51 53 53 44 43 49 47 35 33 32
86 88 91 89 92 95 96 98 91 94 89 92 94 90 88 91 97 95 96 100 110 97 83 91 94 78 74 73 66 73 68 65 66 60 57 47 46 55 54 53 47 47 49 51 37 32 31
94 94 93 93 90 90 92 92 88 81 92 86 86 94 88 88 90 89 89 82 76 77 78 66 66 69 60 56 57 58 58 64 65 65 59 48 51 55 52 50 51 49 49 53 40 33 35
91 92 95 95 94 94 89 91 86 89 89 91 91 94 90 88 86 79 75 73 66 61 57 55 55 52 49 51 50 49 56 62 64 67 59 50 54 58 53 53 58 56 51 44 40 33 35
82 84 87 89 89 90 89 91 91 88 94 93 92 92 85 82 81 71 67 63 56 52 46 47 49 50 47 48 51 56 59 65 70 71 59 54 56 57 52 54 55 59 53 45 40 40 35
75 77 77 81 84 88 90 89 89 87 88 90 86 80 75 70 69 62 59 54 49 46 45 45 48 50 48 46 49 56 62 51 61 60 59 58 55 54 51 53 50 55 58 55 48 45 43
73 71 72 73 74 76 81 82 82 81 79 76 74 69 64 65 60 56 54 49 44 44 48 48 50 53 53 49 54 62 59 58 49 52 57 58 59 54 53 52 54 56 62 56 52 47 47
72 70 70 69 68 68 68 68 69 70 70 69 66 62 57 60 56 54 51 44 42 44 50 52 53 57 61 63 64 65 67 64 62 53 54 55 60 59 55 57 50 49 48 58 55 54 49
72 71 70 68 66 66 66 67 66 65 66 64 61 57 57 58 57 53 50 44 45 48 53 57 57 61 67 70 66 64 62 67 64 65 61 57 62 63 62 59 57 49 52 53 53 51 51
67 68 67 69 67 67 67 66 66 67 65 61 59 56 60 62 61 56 51 52 52 54 56 60 63 64 68 73 72 65 58 62 69 65 61 63 63 64 63 58 61 60 54 58 53 52 52
63 64 65 66 66 66 66 67 68 68 66 63 61 58 65 64 60 55 55 58 58 65 60 65 66 66 71 72 68 63 63 59 70 66 63 60 62 63 62 62 62 63 58 59 61 57 54
59 60 61 63 64 63 63 63 64 66 63 62 58 57 62 64 58 60 60 58 62 69 66 66 69 70 72 73 66 66 63 66 69 71 67 68 68 66 63 64 61 64 63 62 57 58 57
54 56 57 57 58 58 60 62 63 65 61 56 53 57 63 62 63 63 61 61 62 71 71 67 71 73 71 75 70 65 64 63 65 72 72 71 70 72 67 64 64 60 62 62 61 59 58
50 51 54 55 56 57 59 61 60 60 53 49 53 57 63 60 64 61 58 61 67 72 70 70 72 73 76 74 74 69 68 68 68 67 71 71 75 78 78 73 70 64 61 63 63 63 62
46 47 49 50 52 53 54 55 55 52 44 48 51 57 56 56 57 56 57 60 66 75 73 72 75 77 75 72 72 75 75 71 75 72 65 68 71 76 83 84 81 78 73 68 63 58 62
40 42 44 46 47 48 49 49 48 45 45 48 51 51 46 49 48 49 55 61 66 71 75 71 74 75 73 76 70 75 76 78 74 73 75 71 75 78 82 81 83 80 78 78 79 75 71
37 38 40 41 43 44 44 44 44 43 43 43 45 41 41 48 44 49 50 57 65 68 73 71 70 74 73 71 73 74 77 79 78 78 77 78 76 78 82 81 79 74 73 76 72 78 86
34 35 36 38 38 39 40 39 38 36 37 40 37 40 41 45 45 45 49 54 62 67 67 68 69 70 72 70 70 70 74 78 81 82 80 81 79 77 79 84 80 77 83 82 78 80 80
32 33 33 34 34 34 33 33 33 33 33 35 35 36 37 39 45 48 47 53 58 62 64 65 66 65 68 67 67 68 71 72 80 85 82 83 83 86 84 83 84 88 90 92 91 92 87
29 30 30 30 30 29 29 29 29 29 29 30 31 32 35 39 41 43 47 52 54 58 59 62 63 66 62 63 65 67 70 72 74 76 76 78 76 77 83 85 87 89 90 91 91 92 94
27 28 28 28 28 28 28 27 28 28 28 28 30 31 35 37 36 41 43 46 49 54 56 58 61 62 59 57 61 67 67 70 73 76 77 76 75 75 78 80 83 86 90 96 97 97 97
27 28 28 28 29 29 28 26 27 27 28 29 29 28 29 31 36 38 39 43 46 51 53 57 59 59 56 57 59 62 67 68 69 69 69 69 72 75 74 77 79 82 85 87 89 92 93
Wind_Direction
269 266 264 262 261 263 263 262 260 258 256 257 258 262 261 258 259 260 261 259 263 264 265 266 267 271 272 273 275 279 279 284 282 286 288 294 293 294 294 256 260 251 233 234 234 253 262
267 261 263 259 258 260 258 258 261 261 262 263 261 262 263 260 261 260 260 260 261 263 266 266 267 268 271 272 272 275 276 277 280 282 285 286 287 287 287 246 249 246 231 229 233 241 247
265 263 262 260 258 260 259 261 258 261 260 261 260 263 263 262 262 263 262 261 261 263 264 267 269 268 270 268 269 272 272 276 275 280 278 284 286 282 278 242 246 240 230 228 238 230 240
266 264 262 260 260 259 261 262 262 260 260 260 263 262 261 262 262 262 263 262 263 265 264 265 265 268 271 269 268 272 271 272 274 277 277 282 281 277 268 235 239 236 228 231 230 225 234
265 263 263 262 259 260 259 262 261 262 262 261 262 262 264 263 264 262 265 266 266 267 266 264 265 267 268 269 269 271 273 276 274 270 272 275 277 271 249 230 232 227 224 231 218 223 232
266 263 264 262 259 260 260 260 264 261 263 263 263 266 265 263 265 262 264 267 266 265 267 270 267 270 272 273 272 275 274 273 266 267 266 269 263 264 233 227 228 221 220 229 220 222 230
264 262 264 260 256 259 260 261 262 261 262 262 263 263 270 262 264 262 263 264 268 269 272 271 273 271 272 273 275 274 270 268 264 258 261 251 252 243 229 225 224 218 225 224 229 220 227
259 262 259 263 259 257 257 261 260 264 263 263 262 262 262 263 262 260 263 262 267 272 274 273 275 277 275 271 268 265 259 260 245 241 236 239 239 225 227 224 218 216 222 225 225 224 232
264 262 260 261 261 258 258 260 257 259 259 260 264 267 263 265 263 263 265 268 267 272 273 269 271 271 269 267 261 255 247 239 230 234 231 231 222 226 224 224 219 217 222 225 229 220 230
264 265 263 262 262 263 261 263 260 261 265 262 262 266 266 268 265 268 266 269 270 269 267 266 265 263 260 251 247 243 239 226 222 222 228 221 222 224 225 225 221 217 223 227 228 222 230
261 260 260 262 262 263 259 260 260 259 261 260 259 263 265 269 267 268 269 267 267 265 263 256 253 255 244 239 234 228 222 219 219 231 225 216 222 223 223 225 220 220 222 228 224 226 229
263 262 260 258 258 258 258 258 259 259 262 262 262 264 267 270 268 266 266 266 262 259 252 243 242 242 237 232 225 216 214 217 223 226 223 220 222 221 225 230 227 223 226 230 226 221 225
263 261 259 258 256 256 256 257 260 260 263 265 265 265 265 265 264 265 262 260 256 252 241 232 231 232 229 222 221 216 209 211 221 224 225 219 222 221 225 230 232 228 230 230 230 223 230
259 259 258 257 257 257 257 258 260 262 263 263 263 261 262 262 260 259 257 255 251 240 233 228 227 223 222 209 217 212 209 203 206 226 224 220 226 225 228 228 230 229 230 227 227 226 224
257 256 256 256 256 257 258 258 259 259 259 260 260 259 259 257 255 254 252 250 244 237 229 225 222 218 217 214 214 215 211 213 207 215 217 216 222 231 229 228 224 227 235 232 225 226 232
256 255 254 254 254 254 255 256 257 257 256 256 257 257 256 255 253 251 250 247 240 235 226 225 221 215 212 215 215 222 215 216 218 213 215 219 224 229 232 230 228 230 229 233 232 229 232
256 255 255 254 253 253 254 254 254 255 256 256 256 256 257 256 254 251 246 239 238 234 228 222 221 215 211 216 220 225 219 212 213 212 214 217 222 229 232 231 236 230 227 231 228 231 233
254 252 251 252 253 253 253 254 255 257 257 257 256 255 255 255 254 250 243 238 234 235 227 221 220 220 213 212 218 220 213 214 213 215 214 215 225 224 226 228 227 228 230 236 237 232 230
253 252 250 250 250 251 252 253 254 256 256 256 256 256 256 256 254 248 243 237 232 232 228 222 219 220 219 214 217 218 213 214 213 217 216 217 218 223 233 236 236 233 234 232 231 232 232
252 251 251 250 251 251 252 253 253 255 257 258 258 256 255 253 252 248 242 235 229 229 228 220 220 219 220 218 213 218 215 212 216 216 221 220 222 220 226 229 228 232 235 234 235 232 232
252 249 249 248 248 248 249 250 253 255 257 257 255 254 252 249 247 244 239 233 229 229 229 222 218 219 219 219 216 213 215 213 211 217 220 221 222 223 224 226 225 228 236 239 236 237 236
254 252 249 248 248 249 251 252 254 257 254 255 257 254 250 247 245 242 235 230 227 225 228 223 218 218 219 218 218 214 211 215 211 215 216 221 221 226 227 227 231 231 234 234 235 238 239
253 251 250 249 248 249 252 253 254 256 256 256 253 249 246 245 240 237 232 226 226 225 226 224 220 218 217 219 216 215 213 215 219 216 217 217 220 223 228 231 234 236 239 241 240 239 237
252 250 249 249 250 251 252 253 253 251 250 248 246 247 244 242 238 234 230 224 223 222 223 224 221 220 217 219 217 216 216 215 216 219 221 222 224 225 229 232 234 236 239 240 240 245 241
251 250 248 247 248 249 250 250 251 249 248 247 245 241 237 238 234 234 227 223 222 221 221 221 222 221 219 217 220 218 218 219 218 221 222 226 227 229 230 232 233 233 235 237 239 240 240
251 249 248 247 246 246 245 245 244 243 241 241 238 238 235 234 231 230 227 222 222 221 220 218 221 221 220 218 217 220 221 220 223 225 227 229 231 234 234 233 232 234 237 238 240 244 246
252 250 247 245 242 239 238 239 240 238 238 237 236 234 232 228 227 225 221 220 220 220 217 219 220 221 219 219 218 219 223 224 225 227 229 232 233 233 234 236 237 238 239 241 242 245 246
251 248 244 241 240 236 231 230 232 233 234 232 230 228 229 228 224 222 222 219 217 215 216 218 221 222 219 218 219 220 222 225 227 230 232 234 236 236 237 238 239 241 242 243 245 245 247
254 249 246 242 239 235 229 224 225 227 226 226 226 226 227 222 220 219 218 216 215 215 216 218 219 222 220 218 220 221 223 226 229 231 234 236 238 240 241 241 242 242 242 244 246 248 248